Location: Trois-Rivi�res
(46.3500°N, 72.5500°W)
Time: 00:00:59
(UTC-04:00)

N. Korean satellite - Visible Passes

Search period start: 24 October 2017 00:00
Search period end: 03 November 2017 00:00
Orbit: 459 x 517 km, 97.2° (Epoch: 23 October)

Date Brightness Start Highest point End Pass type
(mag) Time Alt. Az. Time Alt. Az. Time Alt. Az.
24 Oct 6.4 18:39:35 10° SSE 18:43:03 71° ENE 18:46:30 10° N visible
25 Oct 7.1 18:16:34 10° SE 18:19:45 35° ENE 18:22:57 10° N visible
25 Oct 9.7 19:51:18 10° SW 19:53:26 15° W 19:55:34 10° NW visible
26 Oct 8.7 19:26:52 10° SSW 19:29:55 28° W 19:32:57 10° NW visible
27 Oct 9.8 06:51:37 10° NE 06:54:06 18° E 06:56:35 10° SE visible
27 Oct 7.2 19:03:03 10° S 19:06:28 55° W 19:09:52 10° NNW visible
28 Oct 6.3 18:39:38 10° SSE 18:43:05 71° ENE 18:46:33 10° N visible
29 Oct 7.0 18:16:37 10° SE 18:19:47 35° ENE 18:22:58 10° N visible
29 Oct 9.7 19:51:23 10° SW 19:53:28 15° W 19:55:33 10° NW visible
30 Oct 8.7 19:26:55 10° SSW 19:29:56 28° W 19:32:57 10° NW visible
31 Oct 9.8 06:51:35 10° NE 06:54:08 18° E 06:56:42 10° SE visible
31 Oct 7.2 19:03:04 10° S 19:06:28 55° W 19:09:52 10° NNW visible
01 Nov 6.3 18:39:38 10° SSE 18:43:04 72° ENE 18:46:31 10° N visible
02 Nov 7.0 18:16:34 10° SE 18:19:44 35° ENE 18:22:56 10° N visible
02 Nov 9.7 19:51:23 10° SW 19:53:26 15° W 19:55:31 10° NW visible
